Location: Anare
(10.6236°N, 66.6506°W)
Time: 18:52:25
(UTC+00:00)

YAOGAN 1 - Visible Passes

Search period start: 12 June 2025 00:00
Search period end: 22 June 2025 00:00
Orbit: 606 x 608 km, 97.8° (Epoch: 12 June)

Date Brightness Start Highest point End Pass type
(mag) Time Alt. Az. Time Alt. Az. Time Alt. Az.
12 Jun 5.5 00:26:55 10° WSW 00:28:24 12° W 00:29:52 10° WNW visible
13 Jun 2.5 23:15:13 10° SSE 23:19:27 70° ENE 23:23:40 10° N visible
14 Jun 2.7 23:28:34 10° S 23:32:48 74° WSW 23:37:03 10° NNW visible
15 Jun 3.6 23:42:07 10° S 23:46:12 46° W 23:50:16 10° NNW visible
16 Jun 4.4 23:55:53 10° SSW 23:59:35 29° W 00:03:17 10° NW visible
18 Jun 5.1 00:09:56 10° SW 00:12:58 19° W 00:16:01 10° NW visible
19 Jun 5.4 00:24:35 10° SW 00:26:22 12° W 00:28:08 10° WNW visible
20 Jun 2.5 23:13:12 10° SSE 23:17:24 65° ENE 23:21:36 10° N visible
21 Jun 2.7 23:26:31 10° S 23:30:46 79° WSW 23:35:00 10° NNW visible
